User: anonymous   Login
Location: Bishop�s Knoyle
(51.0728°N, 2.1714°W)
Time: 09:33:26
(UTC+00:00)
Language:

Nauka - Orbit

View from above orbital plane
View from above orbital plane
View from above satellite
View from above satellite

Ground track
Ground track

The orbit data is extracted from the following two-line orbital elements,

1 49044U 21066A   21292.50255104  .00004687  00000-0  94022-4 0  9990
2 49044  51.6433  88.0366 0004158 127.3682 299.1142 15.48740348307869
Epoch (UTC): 19 October 2021 12:03:40
Eccentricity: 0.0004158
inclination: 51.6433°
perigee height: 417 km
apogee height: 423 km
right ascension of ascending node: 88.0366°
argument of perigee: 127.3682°
revolutions per day: 15.48740348
mean anomaly at epoch: 299.1142°
orbit number at epoch: 30786

The dashed part of the orbit path shows where the satellite is in the earth's shadow,  

DLR